Simultaneous Nadir Overpasses (SNOs) Predictions

Prediction of SNOs between METOP-A and NOAA-19 Satellite Orbit:

Table of predicted SNOs for the next 14.0 days since TLE Epoch: 11/20/2015
Index Date (METOP-A) Time (METOP-A) Lat,Lon (METOP-A) SZA (METOP-A ) Date (NOAA-19) Time (NOAA-19) Lat,Lon (NOAA-19) SZA (NOAA-19 ) Distance(km) Time Diff (sec)
1 11/21/2015 05:57:51 -75.53, -91.12 84.71 11/21/2015 05:56:38 -75.54, -91.15 84.70 1.28 73
2 11/21/2015 06:48:31 75.51, 76.15 95.29 11/21/2015 06:47:40 75.50, 76.22 95.28 2.25 51
3 11/21/2015 07:39:13 -75.51,-116.51 84.71 11/21/2015 07:38:40 -75.52,-116.59 84.70 2.51 33
4 11/21/2015 08:29:53 75.49, 50.76 95.28 11/21/2015 08:29:42 75.48, 50.77 95.28 1.07 11
5 11/21/2015 09:20:35 -75.50,-141.90 84.71 11/21/2015 09:20:42 -75.50,-142.04 84.70 4.07 7
6 11/21/2015 10:11:15 75.48, 25.37 95.28 11/21/2015 10:11:44 75.47, 25.32 95.27 1.77 29
7 11/21/2015 11:01:58 -75.43,-167.44 84.76 11/21/2015 11:02:43 -75.44,-167.35 84.75 2.57 45
8 11/21/2015 11:52:37 75.46, -0.02 95.28 11/21/2015 11:53:46 75.45, -0.13 95.27 3.34 69
9 11/21/2015 12:43:29 -74.99, 165.91 85.19 11/21/2015 12:44:36 -75.01, 168.49 85.15 74.31 67
10 12/01/2015 19:21:46 -75.87, 69.00 82.36 12/01/2015 19:20:36 -75.89, 66.90 82.36 56.99 70
11 12/01/2015 20:12:32 75.56,-124.66 97.33 12/01/2015 20:11:28 75.54,-124.64 97.30 3.06 64
12 12/01/2015 21:03:15 -75.53, 42.56 82.70 12/01/2015 21:02:31 -75.56, 42.53 82.68 3.18 44
13 12/01/2015 21:53:54 75.55,-150.05 97.32 12/01/2015 21:53:30 75.52,-150.10 97.30 3.18 24
14 12/01/2015 22:44:37 -75.51, 17.17 82.71 12/01/2015 22:44:32 -75.50, 17.22 82.73 2.53 5
15 12/01/2015 23:35:17 75.48,-175.59 97.27 12/01/2015 23:35:32 75.50,-175.55 97.29 2.61 15
16 12/02/2015 00:25:59 -75.50, -8.22 82.72 12/02/2015 00:26:34 -75.48, -8.23 82.73 2.13 35
17 12/02/2015 01:16:39 75.47, 159.02 97.26 12/02/2015 01:17:34 75.49, 158.99 97.28 2.48 55
18 12/02/2015 02:07:21 -75.48, -33.61 82.72 12/02/2015 02:08:36 -75.46, -33.68 82.74 2.92 75




NCC Satellite Simultaneous Nadir Overpasses (SNOs) Prediction Service
